Regional Weather Roundup
Issued by NWS Cleveland, OH

Home | Current Version | Previous Version | Graphics & Text | Print | Product List | Glossary On
Versions: 1 2 3 4 5 6 7 8 9 10 11 12 13 14 15 16 17 18 19 20 21 22 23 24 25 26 27 28 29 30 31 32 33 34 35 36 37 38 39 40 41 42 43 44 45 46 47 48 49 50
000
ASUS41 KCLE 190500
RWRCLE
OHIO REGIONAL WEATHER ROUNDUP
NATIONAL WEATHER SERVICE WILMINGTON, OH
100 AM EDT THU OCT 19 2017

NOTE: "FAIR" INDICATES FEW OR NO CLOUDS BELOW 12,000 FEET WITH NO
SIGNIFICANT WEATHER AND/OR OBSTRUCTIONS TO VISIBILITY.

OHZ001>008-015>018-024>027-034-035-043-044-190600-
   NORTHWEST OHIO

CITY           SKY/WX    TMP DP  RH WIND       PRES   REMARKS
DEFIANCE       FAIR      51  41  68 SW7       30.14S
FINDLAY        FAIR      48  40  73 S8        30.15S
TOLEDO EXPRESS FAIR      56  44  64 SW8       30.12F
TOLEDO EXEC    FAIR      54  42  64 SW9       30.14S
LIMA           FAIR      52  43  71 S8        30.16F
$$

OHZ009>014-019>023-028>033-038-089-190600-
   NORTHEAST OHIO

CITY           SKY/WX    TMP DP  RH WIND       PRES   REMARKS
CLE-HOPKINS    FAIR      57  40  52 SW10      30.18R
CLE-LAKEFRONT  FAIR      56  40  55 S7        30.15S
CUY CO. ARPT   NOT AVBL
LORAIN-ELYRIA  FAIR      49  36  61 S6        30.17R
ASHTABULA      FAIR      53  41  63 S6        30.17F
AKRON-CANTON   FAIR      50  38  63 S6        30.18F
WOOSTER        NOT AVBL
MANSFIELD      FAIR      52  41  66 SW8       30.18R
YOUNGSTOWN     FAIR      53  39  59 S6        30.18F
$$

OHZ042-051>053-060>062-070>072-077>081-190600-
  SOUTHWEST OHIO

CITY           SKY/WX    TMP DP  RH WIND       PRES   REMARKS
CINC-COVINGTON FAIR      52  46  80 S7        30.19S
CINC-LUNKEN    FAIR      45  45 100 CALM      30.22R
HAMILTON       FAIR      43  42  97 CALM      30.21R
DAYTON         NOT AVBL
WRIGHT-PAT AFB FAIR      50  43  77 S5        30.19S
DAYTON GENERAL FAIR      52  44  74 S3        30.19S
WILMINGTON     FAIR      50  44  80 SW6       30.20S
$$

OHZ036-037-039>041-045>050-054>059-063>069-073>076-082>088-190600-
  CENTRAL AND SOUTHEAST OHIO

CITY           SKY/WX    TMP DP  RH WIND       PRES   REMARKS
COLUMBUS       FAIR      51  43  74 CALM      30.20R
OSU AIRPORT    FAIR      53  44  71 S5        30.19S
BOLTON FIELD   NOT AVBL
RICKENBACK AFB NOT AVBL
NEWARK         FAIR      43  40  89 CALM      30.20S
MARION         FAIR      51  41  68 SW7       30.19R
LANCASTER      FAIR      43  41  93 CALM      30.20F
ZANESVILLE     FAIR      44  40  85 CALM      30.20F
NEW PHILLY     FAIR      43  41  93 SE5       30.20F
$$



USA.gov is the U.S. government's official web portal to all federal, state and local government web resources and services.